Back to catalog

STARLINK-5748

AliveCommunicationsVLEO
NORAD 55604·PAYLOAD·🇺🇸 United States

Launched Feb 12, 2023 from Cape Canaveral Space Force Station

Loading…

Next Passes (next 24 hours)

TLE

FreshSource: CelesTrak SupGP

Epoch: Sep 15, 2026, 01:56 UTC

1 55604C 23020AM  26258.08104167  .00008687  00000+0  31467-3 0  2587
2 55604  43.0024 349.8233 0002273 270.0275 158.4724 15.27570020    15

Track STARLINK-5748 in real time with AllMySat

Download on the App Store